Time,TemperatureF,DewpointF,PressureIn,WindDirection,WindDirectionDegrees,WindSpeedMPH,WindSpeedGustMPH,Humidity,HourlyPrecipIn,Conditions,Clouds,dailyrainin,SoftwareType,DateUTC
2013-02-28 00:02:00,33.0,28.0,29.63,SW,219,5.0,10.0,83,0.00,,,0.24,,2013-02-28 05:02:00,
2013-02-28 00:11:00,33.0,28.0,29.63,SW,219,5.0,10.0,83,0.00,,,0.24,,2013-02-28 05:11:00,
2013-02-28 00:22:00,33.0,28.0,29.62,WSW,240,6.0,12.0,82,0.00,,,0.24,,2013-02-28 05:22:00,
2013-02-28 00:32:00,32.0,27.0,29.63,SW,234,6.0,12.0,82,0.00,,,0.24,,2013-02-28 05:32:00,
2013-02-28 00:42:00,32.0,27.0,29.63,SW,234,6.0,12.0,82,0.00,,,0.24,,2013-02-28 05:42:00,
2013-02-28 00:52:00,32.0,27.0,29.62,SW,233,6.0,8.0,82,0.00,,,0.22,,2013-02-28 05:52:00,
2013-02-28 01:01:00,32.0,27.0,29.62,West,267,2.0,12.0,82,0.00,,,0.22,,2013-02-28 06:01:00,
2013-02-28 01:11:00,32.0,27.0,29.62,West,267,2.0,12.0,82,0.00,,,0.22,,2013-02-28 06:11:00,
2013-02-28 01:22:00,32.0,27.0,29.62,West,271,3.0,8.0,81,0.00,,,0.22,,2013-02-28 06:22:00,
2013-02-28 01:32:00,32.0,27.0,29.62,SW,225,6.0,14.0,81,0.00,,,0.22,,2013-02-28 06:32:00,
2013-02-28 01:42:00,32.0,27.0,29.62,SW,225,6.0,14.0,81,0.00,,,0.22,,2013-02-28 06:42:00,
2013-02-28 01:52:00,32.0,27.0,29.62,SW,221,5.0,10.0,81,0.00,,,0.22,,2013-02-28 06:52:00,
2013-02-28 02:01:00,32.0,27.0,29.62,West,264,6.0,9.0,82,0.00,,,0.22,,2013-02-28 07:01:00,
2013-02-28 02:11:00,32.0,27.0,29.62,West,264,6.0,9.0,82,0.00,,,0.22,,2013-02-28 07:11:00,
2013-02-28 02:21:00,32.0,27.0,29.62,SSW,209,4.0,10.0,81,0.00,,,0.22,,2013-02-28 07:21:00,
2013-02-28 02:32:00,32.0,27.0,29.61,SW,225,6.0,9.0,81,0.00,,,0.20,,2013-02-28 07:32:00,
2013-02-28 02:42:00,32.0,27.0,29.61,SW,225,6.0,9.0,81,0.00,,,0.20,,2013-02-28 07:42:00,
2013-02-28 02:51:00,32.0,27.0,29.61,SW,226,4.0,8.0,81,0.00,,,0.20,,2013-02-28 07:51:00,
2013-02-28 03:01:00,31.0,26.0,29.60,SW,225,3.0,7.0,81,0.00,,,0.20,,2013-02-28 08:01:00,
2013-02-28 03:11:00,31.0,26.0,29.60,SW,225,3.0,7.0,81,0.00,,,0.20,,2013-02-28 08:11:00,
2013-02-28 03:22:00,31.0,26.0,29.60,SW,233,4.0,12.0,81,0.00,,,0.20,,2013-02-28 08:22:00,
2013-02-28 03:32:00,31.0,26.0,29.60,WSW,254,3.0,9.0,81,0.00,,,0.20,,2013-02-28 08:32:00,
2013-02-28 03:42:00,31.0,26.0,29.60,WSW,254,3.0,9.0,81,0.00,,,0.20,,2013-02-28 08:42:00,
2013-02-28 03:52:00,31.0,26.0,29.60,WSW,239,5.0,10.0,81,0.00,,,0.20,,2013-02-28 08:52:00,
2013-02-28 04:03:00,31.0,26.0,29.60,WSW,248,2.0,10.0,81,0.00,,,0.18,,2013-02-28 09:03:00,
2013-02-28 04:12:00,31.0,26.0,29.60,WSW,248,2.0,10.0,81,0.00,,,0.18,,2013-02-28 09:12:00,
2013-02-28 04:22:00,31.0,26.0,29.59,SW,225,4.0,7.0,81,0.00,,,0.18,,2013-02-28 09:22:00,
2013-02-28 04:32:00,31.0,26.0,29.60,West,280,3.0,8.0,80,0.00,,,0.18,,2013-02-28 09:32:00,
2013-02-28 04:42:00,31.0,26.0,29.60,West,280,3.0,8.0,80,0.00,,,0.18,,2013-02-28 09:42:00,
2013-02-28 04:52:00,31.0,26.0,29.60,West,259,5.0,10.0,80,0.00,,,0.16,,2013-02-28 09:52:00,
2013-02-28 05:02:00,31.0,26.0,29.60,SW,225,6.0,10.0,80,0.00,,,0.16,,2013-02-28 10:02:00,
2013-02-28 05:11:00,31.0,26.0,29.60,SW,225,6.0,10.0,80,0.00,,,0.16,,2013-02-28 10:11:00,
2013-02-28 05:22:00,31.0,26.0,29.60,SW,225,2.0,6.0,80,0.00,,,0.16,,2013-02-28 10:22:00,
2013-02-28 05:32:00,31.0,26.0,29.60,SW,225,1.0,6.0,80,0.00,,,0.16,,2013-02-28 10:32:00,
2013-02-28 05:42:00,31.0,26.0,29.60,SW,225,1.0,6.0,80,0.00,,,0.16,,2013-02-28 10:42:00,
2013-02-28 05:52:00,31.0,26.0,29.59,SSW,211,5.0,9.0,81,0.00,,,0.16,,2013-02-28 10:52:00,
2013-02-28 06:02:00,31.0,26.0,29.59,SW,219,2.0,10.0,81,0.00,,,0.16,,2013-02-28 11:02:00,
2013-02-28 06:11:00,31.0,26.0,29.59,SW,219,2.0,10.0,81,0.00,,,0.16,,2013-02-28 11:11:00,
2013-02-28 06:22:00,31.0,26.0,29.59,SSW,213,2.0,7.0,81,0.00,,,0.14,,2013-02-28 11:22:00,
2013-02-28 06:32:00,31.0,26.0,29.59,SSW,209,7.0,15.0,81,0.00,,,0.14,,2013-02-28 11:32:00,
2013-02-28 06:42:00,31.0,26.0,29.59,SSW,209,7.0,15.0,81,0.00,,,0.14,,2013-02-28 11:42:00,
2013-02-28 06:52:00,31.0,26.0,29.59,SSW,201,4.0,13.0,81,0.00,,,0.14,,2013-02-28 11:52:00,
2013-02-28 07:02:00,31.0,26.0,29.59,WSW,248,5.0,8.0,81,0.00,,,0.14,,2013-02-28 12:02:00,
2013-02-28 07:12:00,31.0,26.0,29.59,WSW,248,5.0,8.0,81,0.00,,,0.14,,2013-02-28 12:12:00,
2013-02-28 07:22:00,31.0,26.0,29.59,WSW,252,2.0,10.0,81,0.00,,,0.14,,2013-02-28 12:22:00,
2013-02-28 07:32:00,31.0,26.0,29.59,WSW,244,8.0,12.0,81,0.00,,,0.14,,2013-02-28 12:32:00,
2013-02-28 07:42:00,31.0,26.0,29.59,WSW,244,8.0,12.0,81,0.00,,,0.14,,2013-02-28 12:42:00,
2013-02-28 07:52:00,31.0,26.0,29.59,WSW,245,4.0,9.0,80,0.00,,,0.12,,2013-02-28 12:52:00,
2013-02-28 08:02:00,31.0,26.0,29.59,SW,231,3.0,9.0,80,0.00,,,0.12,,2013-02-28 13:02:00,
2013-02-28 08:11:00,31.0,26.0,29.60,West,260,4.0,8.0,80,0.00,,,0.12,,2013-02-28 13:11:00,
2013-02-28 08:22:00,31.0,26.0,29.60,West,260,4.0,8.0,80,0.00,,,0.12,,2013-02-28 13:22:00,
2013-02-28 08:32:00,31.0,26.0,29.60,SW,225,4.0,8.0,80,0.00,,,0.12,,2013-02-28 13:32:00,
2013-02-28 08:42:00,31.0,26.0,29.60,SW,225,4.0,8.0,80,0.00,,,0.12,,2013-02-28 13:42:00,
2013-02-28 08:52:00,31.0,26.0,29.60,NW,304,4.0,8.0,81,0.00,,,0.12,,2013-02-28 13:52:00,
2013-02-28 09:02:00,31.0,26.0,29.61,WSW,248,1.0,5.0,80,0.00,,,0.12,,2013-02-28 14:02:00,
2013-02-28 09:11:00,31.0,26.0,29.61,SW,226,3.0,10.0,80,0.00,,,0.12,,2013-02-28 14:11:00,
2013-02-28 09:22:00,31.0,26.0,29.61,SW,226,3.0,10.0,80,0.00,,,0.12,,2013-02-28 14:22:00,
2013-02-28 09:32:00,31.0,26.0,29.61,WSW,257,6.0,9.0,80,0.00,,,0.12,,2013-02-28 14:32:00,
2013-02-28 09:42:00,31.0,26.0,29.61,SW,226,6.0,12.0,80,0.00,,,0.12,,2013-02-28 14:42:00,
2013-02-28 09:52:00,31.0,26.0,29.61,SW,226,6.0,12.0,80,0.00,,,0.12,,2013-02-28 14:52:00,
2013-02-28 10:02:00,31.0,26.0,29.61,SW,226,7.0,13.0,80,0.00,,,0.12,,2013-02-28 15:02:00,
2013-02-28 10:11:00,31.0,26.0,29.61,SW,226,7.0,13.0,80,0.00,,,0.12,,2013-02-28 15:11:00,
2013-02-28 10:22:00,31.0,26.0,29.61,SW,230,3.0,9.0,80,0.00,,,0.12,,2013-02-28 15:22:00,
2013-02-28 10:32:00,31.0,26.0,29.61,WNW,285,5.0,9.0,80,0.00,,,0.12,,2013-02-28 15:32:00,
2013-02-28 10:42:00,31.0,26.0,29.61,WNW,285,5.0,9.0,80,0.00,,,0.12,,2013-02-28 15:42:00,
2013-02-28 10:52:00,31.0,25.0,29.61,WSW,239,6.0,14.0,79,0.00,,,0.12,,2013-02-28 15:52:00,
2013-02-28 11:02:00,31.0,25.0,29.61,SW,234,3.0,8.0,79,0.00,,,0.12,,2013-02-28 16:02:00,
2013-02-28 11:12:00,31.0,25.0,29.61,SW,234,3.0,8.0,79,0.00,,,0.12,,2013-02-28 16:12:00,
2013-02-28 11:22:00,31.0,25.0,29.62,West,263,1.0,7.0,79,0.00,,,0.12,,2013-02-28 16:22:00,
2013-02-28 11:32:00,31.0,25.0,29.62,WSW,255,3.0,12.0,79,0.00,,,0.12,,2013-02-28 16:32:00,
2013-02-28 11:42:00,31.0,25.0,29.62,WSW,255,3.0,12.0,79,0.00,,,0.12,,2013-02-28 16:42:00,
2013-02-28 11:52:00,31.0,25.0,29.63,SSW,207,5.0,10.0,79,0.00,,,0.12,,2013-02-28 16:52:00,
2013-02-28 12:02:00,31.0,25.0,29.63,WSW,237,2.0,8.0,79,0.00,,,0.12,,2013-02-28 17:02:00,
2013-02-28 12:12:00,31.0,25.0,29.63,WSW,248,3.0,8.0,79,0.00,,,0.12,,2013-02-28 17:12:00,
2013-02-28 12:22:00,31.0,25.0,29.63,WSW,248,3.0,8.0,79,0.00,,,0.12,,2013-02-28 17:22:00,
2013-02-28 12:32:00,32.0,27.0,29.63,NW,311,2.0,7.0,80,0.00,,,0.12,,2013-02-28 17:32:00,
2013-02-28 12:42:00,32.0,27.0,29.63,NW,311,2.0,7.0,80,0.00,,,0.12,,2013-02-28 17:42:00,
2013-02-28 12:52:00,32.0,27.0,29.62,SW,229,3.0,9.0,80,0.00,,,0.12,,2013-02-28 17:52:00,
2013-02-28 13:02:00,32.0,27.0,29.62,WSW,243,4.0,12.0,80,0.00,,,0.12,,2013-02-28 18:02:00,
2013-02-28 13:12:00,32.0,27.0,29.62,WSW,243,4.0,12.0,80,0.00,,,0.12,,2013-02-28 18:12:00,
2013-02-28 13:22:00,32.0,27.0,29.61,SW,233,5.0,10.0,80,0.00,,,0.12,,2013-02-28 18:22:00,
2013-02-28 13:32:00,33.0,28.0,29.62,SW,225,5.0,8.0,80,0.00,,,0.12,,2013-02-28 18:32:00,
2013-02-28 13:42:00,33.0,28.0,29.62,SW,225,5.0,8.0,80,0.00,,,0.12,,2013-02-28 18:42:00,
2013-02-28 13:52:00,33.0,27.0,29.61,WSW,242,6.0,12.0,79,0.00,,,0.12,,2013-02-28 18:52:00,
2013-02-28 14:02:00,33.0,27.0,29.61,WSW,239,3.0,13.0,79,0.00,,,0.12,,2013-02-28 19:02:00,
2013-02-28 14:12:00,33.0,27.0,29.61,WSW,239,3.0,13.0,79,0.00,,,0.12,,2013-02-28 19:12:00,
2013-02-28 14:22:00,33.0,27.0,29.61,WSW,238,7.0,13.0,79,0.00,,,0.12,,2013-02-28 19:22:00,
2013-02-28 14:32:00,33.0,27.0,29.61,WSW,252,3.0,14.0,79,0.00,,,0.12,,2013-02-28 19:32:00,
2013-02-28 14:42:00,33.0,27.0,29.61,WSW,252,3.0,14.0,79,0.00,,,0.12,,2013-02-28 19:42:00,
2013-02-28 14:51:00,33.0,27.0,29.61,WNW,291,3.0,12.0,79,0.00,,,0.12,,2013-02-28 19:51:00,
2013-02-28 15:01:00,33.0,27.0,29.62,WSW,248,3.0,8.0,79,0.00,,,0.12,,2013-02-28 20:01:00,
2013-02-28 15:12:00,33.0,27.0,29.62,WSW,248,3.0,8.0,79,0.00,,,0.12,,2013-02-28 20:12:00,
2013-02-28 15:22:00,33.0,27.0,29.62,SW,235,6.0,12.0,79,0.02,,,0.14,,2013-02-28 20:22:00,
2013-02-28 15:32:00,33.0,27.0,29.62,WSW,237,3.0,15.0,79,0.02,,,0.14,,2013-02-28 20:32:00,
2013-02-28 15:42:00,33.0,27.0,29.62,WSW,237,3.0,15.0,79,0.02,,,0.14,,2013-02-28 20:42:00,
2013-02-28 15:52:00,33.0,27.0,29.62,SW,221,8.0,9.0,79,0.02,,,0.14,,2013-02-28 20:52:00,
2013-02-28 16:02:00,32.0,26.0,29.62,SW,232,5.0,14.0,79,0.02,,,0.12,,2013-02-28 21:02:00,
2013-02-28 16:11:00,32.0,26.0,29.62,SW,232,5.0,14.0,79,0.02,,,0.12,,2013-02-28 21:11:00,
2013-02-28 16:22:00,32.0,27.0,29.62,WSW,255,2.0,10.0,80,0.00,,,0.12,,2013-02-28 21:22:00,
2013-02-28 16:32:00,32.0,27.0,29.63,WSW,239,7.0,15.0,80,0.00,,,0.12,,2013-02-28 21:32:00,
2013-02-28 16:42:00,32.0,27.0,29.63,WSW,239,7.0,15.0,80,0.00,,,0.12,,2013-02-28 21:42:00,
2013-02-28 16:52:00,32.0,27.0,29.63,SW,224,4.0,16.0,80,0.00,,,0.12,,2013-02-28 21:52:00,
2013-02-28 17:01:00,32.0,27.0,29.63,SW,224,4.0,16.0,80,0.00,,,0.12,,2013-02-28 22:01:00,
2013-02-28 17:11:00,32.0,27.0,29.63,SW,224,4.0,16.0,80,0.00,,,0.12,,2013-02-28 22:11:00,
2013-02-28 17:22:00,32.0,27.0,29.63,SW,214,7.0,12.0,81,0.00,,,0.10,,2013-02-28 22:22:00,
2013-02-28 17:32:00,32.0,27.0,29.63,West,263,3.0,12.0,81,0.00,,,0.10,,2013-02-28 22:32:00,
2013-02-28 17:42:00,32.0,27.0,29.63,West,263,3.0,12.0,81,0.00,,,0.10,,2013-02-28 22:42:00,
2013-02-28 17:52:00,32.0,27.0,29.64,WSW,253,3.0,10.0,81,0.00,,,0.10,,2013-02-28 22:52:00,
2013-02-28 18:01:00,32.0,27.0,29.65,WSW,246,7.0,10.0,81,0.00,,,0.10,,2013-02-28 23:01:00,
2013-02-28 18:11:00,32.0,27.0,29.65,WSW,247,4.0,13.0,82,0.00,,,0.10,,2013-02-28 23:11:00,
2013-02-28 18:22:00,32.0,27.0,29.65,WSW,247,4.0,13.0,82,0.00,,,0.10,,2013-02-28 23:22:00,
2013-02-28 18:32:00,32.0,27.0,29.66,SW,224,3.0,10.0,82,0.00,,,0.08,,2013-02-28 23:32:00,
2013-02-28 18:42:00,32.0,27.0,29.66,SW,224,3.0,10.0,82,0.00,,,0.08,,2013-02-28 23:42:00,
2013-02-28 18:52:00,32.0,27.0,29.67,WNW,291,3.0,12.0,83,0.00,,,0.08,,2013-02-28 23:52:00,
2013-02-28 19:02:00,32.0,27.0,29.68,West,273,5.0,10.0,83,0.00,,,0.08,,2013-03-01 00:02:00,
2013-02-28 19:11:00,32.0,27.0,29.68,West,273,5.0,10.0,83,0.00,,,0.08,,2013-03-01 00:11:00,
2013-02-28 19:22:00,32.0,28.0,29.68,West,275,3.0,7.0,84,0.00,,,0.08,,2013-03-01 00:22:00,
2013-02-28 19:32:00,32.0,28.0,29.69,WNW,292,4.0,9.0,84,0.00,,,0.08,,2013-03-01 00:32:00,
2013-02-28 19:42:00,32.0,28.0,29.69,WNW,292,4.0,9.0,84,0.00,,,0.08,,2013-03-01 00:42:00,
2013-02-28 19:51:00,32.0,28.0,29.70,West,273,3.0,9.0,84,0.00,,,0.06,,2013-03-01 00:51:00,
2013-02-28 20:01:00,32.0,28.0,29.70,WNW,301,6.0,8.0,84,0.00,,,0.06,,2013-03-01 01:01:00,
2013-02-28 20:11:00,32.0,28.0,29.70,WNW,301,6.0,8.0,84,0.00,,,0.06,,2013-03-01 01:11:00,
2013-02-28 20:22:00,32.0,28.0,29.71,West,280,2.0,8.0,84,0.00,,,0.06,,2013-03-01 01:22:00,
2013-02-28 20:32:00,32.0,28.0,29.71,WNW,292,7.0,10.0,84,0.00,,,0.04,,2013-03-01 01:32:00,
2013-02-28 20:42:00,32.0,28.0,29.71,WNW,292,7.0,10.0,84,0.00,,,0.04,,2013-03-01 01:42:00,
2013-02-28 20:51:00,32.0,28.0,29.71,NW,315,5.0,10.0,84,0.00,,,0.04,,2013-03-01 01:51:00,
2013-02-28 21:01:00,32.0,28.0,29.72,WNW,300,1.0,7.0,84,0.00,,,0.04,,2013-03-01 02:01:00,
2013-02-28 21:11:00,32.0,28.0,29.72,NW,315,2.0,8.0,84,0.00,,,0.04,,2013-03-01 02:11:00,
2013-02-28 21:21:00,32.0,28.0,29.72,NW,315,2.0,8.0,84,0.00,,,0.04,,2013-03-01 02:21:00,
2013-02-28 21:32:00,32.0,28.0,29.73,WNW,292,3.0,12.0,84,0.00,,,0.04,,2013-03-01 02:32:00,
2013-02-28 21:42:00,32.0,28.0,29.73,WNW,292,3.0,12.0,84,0.00,,,0.04,,2013-03-01 02:42:00,
2013-02-28 21:52:00,32.0,28.0,29.73,WNW,295,4.0,9.0,84,0.00,,,0.02,,2013-03-01 02:52:00,
2013-02-28 22:02:00,32.0,28.0,29.73,WNW,292,4.0,8.0,84,0.00,,,0.02,,2013-03-01 03:02:00,
2013-02-28 22:12:00,32.0,28.0,29.73,WNW,292,4.0,8.0,84,0.00,,,0.02,,2013-03-01 03:12:00,
2013-02-28 22:21:00,32.0,27.0,29.73,NW,308,1.0,5.0,83,0.00,,,0.02,,2013-03-01 03:21:00,
2013-02-28 22:32:00,32.0,27.0,29.73,NW,315,2.0,6.0,83,0.00,,,0.02,,2013-03-01 03:32:00,
2013-02-28 22:42:00,32.0,27.0,29.73,NW,315,2.0,6.0,83,0.00,,,0.02,,2013-03-01 03:42:00,
2013-02-28 22:51:00,31.0,27.0,29.73,WNW,292,1.0,6.0,84,0.00,,,0.02,,2013-03-01 03:51:00,
2013-02-28 23:01:00,31.0,27.0,29.73,West,270,2.0,7.0,84,0.00,,,0.02,,2013-03-01 04:01:00,
2013-02-28 23:12:00,31.0,27.0,29.73,West,270,2.0,7.0,84,0.00,,,0.02,,2013-03-01 04:12:00,
2013-02-28 23:22:00,31.0,26.0,29.73,WNW,292,1.0,6.0,83,0.00,,,0.02,,2013-03-01 04:22:00,
2013-02-28 23:32:00,31.0,26.0,29.73,WNW,300,3.0,8.0,83,0.00,,,0.02,,2013-03-01 04:32:00,
2013-02-28 23:42:00,31.0,26.0,29.73,WNW,300,3.0,8.0,83,0.00,,,0.02,,2013-03-01 04:42:00,
2013-02-28 23:52:00,31.0,26.0,29.73,NW,316,4.0,6.0,83,0.00,,,0.02,,2013-03-01 04:52:00,